Flag for Germany Weather past 2 weeks in Neuwied, Rhineland-Palatinate, Germany

Now
55 °F

Cool.


Feels Like: 54 °F
Forecast: 42 / 59 °F
Wind: 7 mph from Northwest

Location: Buechel

Current Time: Sep 21, 2014 at 5:11:06 PM

Latest Report: Sep 21, 2014 at 4:20 PM


Visibility: N/A

Pressure: 30.01 "Hg

Humidity: 94%

Dew point: 54 °F

Location of NeuwiedLocation

Historic Weather in Neuwied — Graph

°F

Neuwied temperature yesterday

Maximum temperature yesterday: 72 °F (at 2:20 PM)
Minimum temperature yesterday: 57 °F (at 5:20 AM)
Average temperature yesterday: 61 °F

Past Weeks' High & Low Weather Summary

 TemperatureHumidityPressure
High73 °F (Sep 18, 5:20 PM)100% (Sep 7, 4:20 AM)30.21 "Hg (Sep 7, 4:20 AM)
Low48 °F (Sep 12, 3:20 AM)52% (Sep 12, 3:20 PM)29.86 "Hg (Sep 18, 6:20 AM)
Average59 °F82%30.03 "Hg
* Reported Sep 6 3:20 PM — Sep 21 3:20 PM, Neuwied, Weather by CustomWeather, © 2014

Note: Actual official high and low records may vary slightly from our data, if they occured in-between our weather recording intervals... More about our weather records

Advertising

Neuwied weather history for previous 24 hours

 ConditionsComfort  
Time TempWeatherWind HumidityBarometerVisibility
3:20 PM
Sep 21
55 °FCool.9 mph94%30.01 "HgN/A
2:20 PM57 °FCool.8 mph94%30.01 "HgN/A
1:20 PM59 °FCool.7 mph88%30.01 "HgN/A
12:20 PM59 °FCool.7 mph94%30.01 "Hg4 mi
11:20 AM59 °FCool.7 mph88%30.01 "Hg2 mi
10:20 AM59 °FCool.7 mph94%30.01 "HgN/A
9:20 AM57 °FCool.5 mph100%29.98 "Hg5 mi
8:20 AM57 °FCool.5 mph94%29.98 "Hg4 mi
7:20 AM55 °FCool.6 mph100%29.98 "HgN/A
6:20 AM55 °FCool.6 mph100%29.98 "Hg4 mi
5:20 AM57 °FCool.6 mph94%29.98 "Hg4 mi
4:20 AM57 °FCool.7 mph94%29.98 "Hg2 mi
3:20 AM57 °FCool.5 mph94%29.98 "Hg0 mi
2:20 AM57 °FCool.3 mph94%29.98 "HgN/A
1:20 AM57 °FCool.2 mph94%30.01 "Hg4 mi
12:20 AM57 °FCool.6 mph94%30.01 "HgN/A
11:20 PM
Sep 20
59 °FCool.5 mph88%30.01 "HgN/A
10:20 PM59 °FCool.10 mph94%30.04 "Hg2 mi
9:20 PM59 °FCool.7 mph94%30.01 "HgN/A
8:20 PM61 °FCool.3 mph88%30.01 "HgN/A
7:20 PM61 °FCool.5 mph88%29.98 "HgN/A
Weather by CustomWeather, © 2014

See weather overviewHow to use our weather pages